Weather History for Hutchinson, MN

Change the Weather History Date:

Sunday, October 2, 2011

  Actual Average Record
Temperature  
Mean Temperature 62 °F -  
Max Temperature 82 °F 70 °F 89 °F (2001)
Min Temperature 41 °F 41 °F 19 °F (2003)
Degree Days  
Heating Degree Days 4    
Growing Degree Days 12 (Base 50)    
Moisture  
Dew Point 39 °F    
Average Humidity 47    
Maximum Humidity 80    
Minimum Humidity 21    
Precipitation  
Precipitation 0.00 in - - ()
Sea Level Pressure  
Sea Level Pressure 30.14 in    
Wind  
Wind Speed 4 mph (SSE)    
Max Wind Speed 12 mph    
Max Gust Speed 16 mph    
Visibility 10 miles    
Events      
Averages and records for this station are not official NWS values.
T = Trace of Precipitation, MM = Missing Value Source: NWS Daily Summary

Daily Weather History Graph

Daily Weather History Graph

Search for Another Location

Airport:

Trip Planner

Search our weather history database for the weather conditions in past years. The results will help you decide how hot, cold, wet, or windy it might be!

Date:

Astronomy

Oct. 02, 2011 Rise Set
Actual Time 7:16 AM CDT 6:56 PM CDT
Civil Twilight 6:47 AM CDT 7:25 PM CDT
Nautical Twilight 6:13 AM CDT 7:59 PM CDT
Astronomical Twilight 5:38 AM CDT 8:34 PM CDT
Moon 1:38 PM CDT (10/2) 10:41 PM CDT (10/2)
Length of Visible Light 12h 38m
Length of Day
11h 40m
Waxing Crescent, 35% of the Moon is Illuminated
Oct 2
Waxing Crescent
Oct 3
First Quarter
Oct 11
Full
Oct 19
Last Quarter
Oct 26
New

Hourly Weather History & Observations

Time (CDT) Temp. Windchill Dew Point Humidity Pressure Visibility Wind Dir Wind Speed Gust Speed Precip Events Conditions
12:13 AM 49.5 °F - 35.6 °F 59% 30.18 in 10.0 mi SE 3.5 mph - N/A   Clear
12:53 AM 49.5 °F - 36.5 °F 61% 30.18 in 10.0 mi SE 3.5 mph - N/A   Clear
1:13 AM 46.9 °F - 35.2 °F 64% 30.18 in 10.0 mi SE 4.6 mph - N/A   Clear
1:33 AM 46.9 °F - 35.8 °F 65% 30.18 in 10.0 mi SE 3.5 mph - N/A   Clear
2:12 AM 46.9 °F - 35.6 °F 65% 30.18 in 10.0 mi Calm Calm - N/A   Clear
2:33 AM 47.3 °F - 35.4 °F 63% 30.18 in 10.0 mi SSE 3.5 mph - N/A   Clear
2:53 AM 49.5 °F - 37.4 °F 63% 30.18 in 10.0 mi SSE 3.5 mph - N/A   Clear
3:13 AM 47.8 °F - 36.1 °F 64% 30.18 in 10.0 mi Calm Calm - N/A   Clear
3:32 AM 46.9 °F - 36.1 °F 66% 30.18 in 10.0 mi SSE 3.5 mph - N/A   Clear
3:53 AM 46.9 °F - 36.5 °F 67% 30.18 in 10.0 mi Calm Calm - N/A   Clear
4:13 AM 46.9 °F - 36.3 °F 67% 30.19 in 10.0 mi Calm Calm - N/A   Clear
4:33 AM 47.7 °F - 36.3 °F 65% 30.19 in 10.0 mi SSE 3.5 mph - N/A   Clear
5:13 AM 43.2 °F 41.5 °F 34.7 °F 72% 30.19 in 10.0 mi SE 3.5 mph - N/A   Clear
6:13 AM 42.8 °F 40.1 °F 35.4 °F 75% 30.19 in 10.0 mi SE 4.6 mph - N/A   Clear
6:32 AM 42.1 °F 39.2 °F 35.2 °F 77% 30.19 in 10.0 mi SE 4.6 mph - N/A   Clear
6:53 AM 41.9 °F 39.0 °F 35.4 °F 78% 30.19 in 10.0 mi SE 4.6 mph - N/A   Clear
7:13 AM 41.9 °F 38.2 °F 36.1 °F 80% 30.19 in 10.0 mi SE 5.8 mph - N/A   Clear
7:32 AM 43.2 °F 41.5 °F 36.0 °F 76% 30.19 in 10.0 mi SE 3.5 mph - N/A   Clear
7:53 AM 44.6 °F 42.2 °F 36.5 °F 73% 30.18 in 10.0 mi SE 4.6 mph - N/A   Clear
8:13 AM 46.9 °F - 37.9 °F 71% 30.18 in 10.0 mi SSE 4.6 mph - N/A   Clear
8:33 AM 49.5 °F - 38.8 °F 67% 30.17 in 10.0 mi SSE 5.8 mph - N/A   Clear
9:13 AM 54.5 °F - 40.1 °F 58% 30.17 in 10.0 mi South 5.8 mph - N/A   Clear
9:33 AM 57.2 °F - 40.5 °F 54% 30.17 in 10.0 mi South 3.5 mph - N/A   Clear
9:53 AM 59.5 °F - 39.7 °F 48% 30.17 in 10.0 mi South 8.1 mph - N/A   Clear
10:13 AM 60.1 °F - 38.8 °F 45% 30.16 in 10.0 mi South 6.9 mph - N/A   Clear
10:33 AM 62.6 °F - 39.0 °F 42% 30.16 in 10.0 mi South 6.9 mph - N/A   Clear
10:53 AM 66.2 °F - 39.6 °F 38% 30.15 in 10.0 mi South 9.2 mph - N/A   Clear
11:13 AM 69.8 °F - 40.1 °F 34% 30.15 in 10.0 mi South 10.4 mph - N/A   Clear
11:33 AM 69.8 °F - 40.3 °F 34% 30.15 in 10.0 mi South 8.1 mph - N/A   Clear
11:52 AM 70.2 °F - 39.9 °F 33% 30.15 in 10.0 mi South 8.1 mph - N/A   Clear
12:13 PM 74.7 °F - 42.4 °F 31% 30.14 in 10.0 mi South 8.1 mph - N/A   Clear
12:53 PM 77.2 °F - 41.7 °F 28% 30.13 in 10.0 mi South 6.9 mph - N/A   Clear
1:13 PM 77.2 °F - 41.5 °F 28% 30.13 in 10.0 mi SSE 6.9 mph - N/A   Clear
1:33 PM 77.2 °F - 40.6 °F 27% 30.12 in 10.0 mi South 8.1 mph - N/A   Clear
1:53 PM 79.7 °F - 42.1 °F 26% 30.11 in 10.0 mi SSE 11.5 mph - N/A   Clear
2:13 PM 79.7 °F - 41.2 °F 25% 30.11 in 10.0 mi SSE 9.2 mph 16.1 mph N/A   Clear
2:33 PM 81.0 °F - 40.5 °F 24% 30.11 in 10.0 mi South 10.4 mph - N/A   Clear
2:53 PM 81.7 °F - 41.2 °F 24% 30.10 in 10.0 mi South 8.1 mph - N/A   Clear
3:13 PM 82.0 °F - 40.8 °F 23% 30.10 in 10.0 mi SSE 8.1 mph - N/A   Clear
3:33 PM 82.4 °F - 40.1 °F 22% 30.09 in 10.0 mi South 8.1 mph - N/A   Clear
3:53 PM 82.4 °F - 39.2 °F 21% 30.09 in 10.0 mi SSE 6.9 mph - N/A   Clear
4:33 PM 82.4 °F - 39.6 °F 22% 30.09 in 10.0 mi South 6.9 mph - N/A   Clear
4:53 PM 82.4 °F - 39.6 °F 22% 30.09 in 10.0 mi SW 5.8 mph - N/A   Clear
5:13 PM 81.0 °F - 39.7 °F 23% 30.08 in 10.0 mi South 5.8 mph - N/A   Clear
5:33 PM 80.6 °F - 40.5 °F 24% 30.09 in 10.0 mi South 4.6 mph - N/A   Clear
5:53 PM 79.7 °F - 41.5 °F 26% 30.09 in 10.0 mi South 6.9 mph - N/A   Clear
6:13 PM 77.2 °F - 42.3 °F 29% 30.09 in 10.0 mi South 3.5 mph - N/A   Clear
6:33 PM 75.2 °F - 41.0 °F 29% 30.09 in 10.0 mi SSE 3.5 mph - N/A   Clear
6:53 PM 74.7 °F - 41.5 °F 30% 30.09 in 10.0 mi SSE 3.5 mph - N/A   Clear
7:13 PM 69.8 °F - 39.6 °F 33% 30.10 in 10.0 mi SE 3.5 mph - N/A   Clear
7:32 PM 65.5 °F - 41.0 °F 41% 30.10 in 10.0 mi SE 3.5 mph - N/A   Clear
7:53 PM 62.6 °F - 40.1 °F 44% 30.10 in 10.0 mi Calm Calm - N/A   Clear
8:13 PM 62.1 °F - 40.1 °F 44% 30.10 in 10.0 mi Calm Calm - N/A   Clear
8:33 PM 62.8 °F - 39.2 °F 42% 30.10 in 10.0 mi SE 3.5 mph - N/A   Clear
8:53 PM 61.0 °F - 39.4 °F 45% 30.11 in 7.0 mi ESE 4.6 mph - N/A   Clear
9:13 PM 59.5 °F - 40.3 °F 49% 30.11 in 10.0 mi ESE 4.6 mph - N/A   Clear
9:33 PM 59.5 °F - 40.1 °F 49% 30.12 in 10.0 mi ESE 3.5 mph - N/A   Clear
9:53 PM 59.5 °F - 40.6 °F 50% 30.12 in 10.0 mi ESE 3.5 mph - N/A   Clear
10:13 PM 59.5 °F - 41.7 °F 52% 30.12 in 10.0 mi Calm Calm - N/A   Clear
10:33 PM 59.5 °F - 40.6 °F 50% 30.12 in 10.0 mi Calm Calm - N/A   Clear
10:53 PM 59.5 °F - 40.3 °F 49% 30.12 in 10.0 mi SSE 4.6 mph - N/A   Clear
11:33 PM 59.4 °F - 41.2 °F 51% 30.13 in 10.0 mi South 5.8 mph - N/A   Clear
11:52 PM 59.5 °F - 41.0 °F 50% 30.13 in 10.0 mi SSE 5.8 mph - N/A   Clear